When you browse on this site, cookies collect data to enhance your experience and personalize the content and advertising you see.
Visit our Privacy Policy to learn more. By continuing to use the site, you agree to this use of cookies and data.
  • In United Kingdom
  • List of Countries
  • For 7 days
  • Water Temperature
  • Satellite Maps
  • Weather Map
  • Weather Widgets
  • user-avatar
    Login

    Hourly Weather Santa Cruz Xitla

    Today, 19 May, Sunday

    Time Temperature Precipitation Wind Pressure Humidity
    00:00 +17°C° 0 mm 0 mps 611 mmHg 87%
    01:00 +17°C° 0.1 mm 0 mps 610 mmHg 88%
    02:00 +16°C° 0.1 mm 0 mps 610 mmHg 89%
    03:00 +16°C° 0.1 mm 0 mps 609 mmHg 90%
    04:00 +15°C° 0 mm 0 mps 609 mmHg 89%
    05:00 +15°C° 0 mm 0 mps 609 mmHg 88%
    06:00 +15°C° 0 mm 0 mps 609 mmHg 87%
    07:00 +17°C° 0 mm 0 mps 610 mmHg 75%
    08:00 +20°C° 0 mm 0 mps 611 mmHg 62%
    09:00 +22°C° 0 mm 0 mps 612 mmHg 49%
    10:00 +26°C° 0 mm 1 mps 613 mmHg 42%
    11:00 +28°C° 0 mm 1 mps 613 mmHg 35%
    12:00 +29°C° 0 mm 1 mps 614 mmHg 28%
    13:00 +29°C° 0.1 mm 2 mps 614 mmHg 29%
    14:00 +29°C° 0.1 mm 2 mps 613 mmHg 30%
    15:00 +29°C° 0.1 mm 2 mps 613 mmHg 30%
    16:00 +28°C° 0 mm 2 mps 612 mmHg 38%
    17:00 +26°C° 0 mm 2 mps 611 mmHg 46%
    18:00 +25°C° 0 mm 2 mps 611 mmHg 54%
    19:00 +23°C° 0 mm 2 mps 611 mmHg 63%
    20:00 +22°C° 0 mm 1 mps 611 mmHg 73%
    21:00 +20°C° 0 mm 1 mps 611 mmHg 82%
    22:00 +18°C° 0 mm 0 mps 611 mmHg 84%
    23:00 +17°C° 0 mm 0 mps 611 mmHg 87%

    Tomorrow, 20 May, Monday

    Time Temperature Precipitation Wind Pressure Humidity
    00:00 +17°C° 0 mm 0 mps 611 mmHg 89%
    01:00 +16°C° 0 mm 0 mps 611 mmHg 89%
    02:00 +16°C° 0 mm 0 mps 610 mmHg 89%
    03:00 +16°C° 0 mm 1 mps 610 mmHg 88%
    04:00 +16°C° 0 mm 1 mps 609 mmHg 84%
    05:00 +16°C° 0 mm 1 mps 609 mmHg 80%
    06:00 +15°C° 0 mm 1 mps 609 mmHg 76%
    07:00 +19°C° 0 mm 1 mps 610 mmHg 64%
    08:00 +21°C° 0 mm 1 mps 612 mmHg 53%
    09:00 +24°C° 0 mm 1 mps 613 mmHg 41%
    10:00 +26°C° 0 mm 1 mps 613 mmHg 37%
    11:00 +27°C° 0 mm 1 mps 614 mmHg 33%
    12:00 +29°C° 0 mm 1 mps 614 mmHg 29%
    13:00 +29°C° 0.1 mm 1 mps 614 mmHg 30%
    14:00 +28°C° 0.1 mm 1 mps 613 mmHg 31%
    15:00 +28°C° 0.1 mm 1 mps 613 mmHg 33%
    16:00 +27°C° 0.1 mm 2 mps 612 mmHg 40%
    17:00 +25°C° 0.1 mm 2 mps 611 mmHg 48%
    18:00 +24°C° 0.1 mm 2 mps 611 mmHg 56%
    19:00 +23°C° 0.2 mm 1 mps 611 mmHg 64%
    20:00 +21°C° 0.2 mm 1 mps 611 mmHg 72%
    21:00 +18°C° 0.2 mm 0 mps 611 mmHg 79%
    22:00 +18°C° 0.3 mm 0 mps 611 mmHg 82%
    23:00 +17°C° 0.3 mm 0 mps 611 mmHg 84%

    Day after tomorrow, 21 May, Tuesday

    Time Temperature Precipitation Wind Pressure Humidity
    00:00 +17°C° 0.3 mm 0 mps 611 mmHg 86%
    01:00 +16°C° 0.2 mm 0 mps 610 mmHg 87%
    02:00 +16°C° 0.2 mm 0 mps 610 mmHg 88%
    03:00 +16°C° 0.2 mm 0 mps 609 mmHg 88%
    04:00 +16°C° 0 mm 0 mps 609 mmHg 89%
    05:00 +15°C° 0 mm 0 mps 609 mmHg 90%
    06:00 +15°C° 0 mm 0 mps 609 mmHg 91%
    07:00 +17°C° 0 mm 0 mps 610 mmHg 80%
    08:00 +20°C° 0 mm 0 mps 611 mmHg 69%
    09:00 +22°C° 0 mm 0 mps 612 mmHg 58%
    10:00 +25°C° 0 mm 1 mps 612 mmHg 54%
    11:00 +26°C° 0 mm 1 mps 613 mmHg 50%
    12:00 +27°C° 0 mm 1 mps 613 mmHg 45%
    13:00 +27°C° 0.3 mm 2 mps 612 mmHg 47%
    14:00 +27°C° 0.3 mm 2 mps 611 mmHg 48%
    15:00 +27°C° 0.3 mm 2 mps 611 mmHg 50%
    16:00 +26°C° 0.3 mm 2 mps 610 mmHg 57%
    17:00 +24°C° 0.3 mm 2 mps 610 mmHg 64%
    18:00 +23°C° 0.3 mm 2 mps 609 mmHg 71%
    19:00 +21°C° 0.1 mm 2 mps 610 mmHg 76%
    20:00 +20°C° 0.1 mm 2 mps 610 mmHg 81%
    21:00 +20°C° 0.1 mm 1 mps 610 mmHg 86%
    22:00 +20°C° 0.1 mm 1 mps 610 mmHg 87%
    23:00 +20°C° 0.1 mm 1 mps 611 mmHg 88%

    22 May, Wednesday

    Time Temperature Precipitation Wind Pressure Humidity
    00:00 +20°C° 0.1 mm 1 mps 611 mmHg 89%
    01:00 +19°C° 0.1 mm 1 mps 610 mmHg 90%
    02:00 +19°C° 0.1 mm 1 mps 610 mmHg 91%
    03:00 +19°C° 0.1 mm 1 mps 609 mmHg 92%
    04:00 +19°C° 0 mm 1 mps 609 mmHg 92%
    05:00 +18°C° 0 mm 1 mps 609 mmHg 93%
    06:00 +18°C° 0 mm 1 mps 609 mmHg 93%
    07:00 +18°C° 0 mm 0 mps 610 mmHg 82%
    08:00 +20°C° 0 mm 0 mps 611 mmHg 70%
    09:00 +22°C° 0 mm 0 mps 612 mmHg 59%
    10:00 +25°C° 0 mm 1 mps 613 mmHg 53%
    11:00 +27°C° 0 mm 1 mps 613 mmHg 47%
    12:00 +28°C° 0 mm 1 mps 613 mmHg 41%
    13:00 +28°C° 0.2 mm 1 mps 613 mmHg 42%
    14:00 +28°C° 0.2 mm 1 mps 612 mmHg 43%
    15:00 +27°C° 0.2 mm 2 mps 611 mmHg 45%
    16:00 +26°C° 0.2 mm 2 mps 611 mmHg 51%
    17:00 +25°C° 0.2 mm 2 mps 611 mmHg 57%
    18:00 +24°C° 0.2 mm 2 mps 610 mmHg 63%
    19:00 +23°C° 0.4 mm 1 mps 611 mmHg 70%
    20:00 +22°C° 0.4 mm 1 mps 611 mmHg 76%
    21:00 +21°C° 0.4 mm 1 mps 611 mmHg 83%
    22:00 +20°C° 1 mm 1 mps 611 mmHg 84%
    23:00 +18°C° 1 mm 0 mps 611 mmHg 85%

    23 May, Thursday

    Time Temperature Precipitation Wind Pressure Humidity
    00:00 +18°C° 1 mm 0 mps 611 mmHg 86%
    01:00 +17°C° 0.5 mm 0 mps 611 mmHg 86%
    02:00 +17°C° 0.5 mm 0 mps 610 mmHg 87%
    03:00 +17°C° 0.5 mm 0 mps 610 mmHg 87%
    04:00 +16°C° 0.1 mm 0 mps 610 mmHg 86%
    05:00 +18°C° 0.1 mm 1 mps 610 mmHg 85%
    06:00 +18°C° 0.1 mm 1 mps 610 mmHg 84%
    07:00 +20°C° 0 mm 1 mps 611 mmHg 74%
    08:00 +22°C° 0 mm 1 mps 612 mmHg 65%
    09:00 +24°C° 0 mm 1 mps 613 mmHg 56%
    10:00 +25°C° 0.1 mm 1 mps 613 mmHg 52%
    11:00 +26°C° 0.1 mm 1 mps 613 mmHg 48%
    12:00 +28°C° 0.1 mm 1 mps 614 mmHg 44%
    13:00 +27°C° 0.7 mm 2 mps 613 mmHg 46%
    14:00 +27°C° 0.7 mm 2 mps 612 mmHg 49%
    15:00 +26°C° 0.7 mm 2 mps 612 mmHg 51%
    16:00 +25°C° 1.2 mm 2 mps 611 mmHg 58%
    17:00 +24°C° 1.2 mm 2 mps 611 mmHg 64%
    18:00 +23°C° 1.2 mm 2 mps 611 mmHg 70%
    19:00 +22°C° 1.5 mm 1 mps 611 mmHg 74%
    20:00 +21°C° 1.5 mm 1 mps 611 mmHg 77%
    21:00 +18°C° 1.5 mm 0 mps 611 mmHg 81%
    22:00 +18°C° 0.6 mm 0 mps 611 mmHg 82%
    23:00 +18°C° 0.6 mm 0 mps 611 mmHg 82%

    24 May, Friday

    Time Temperature Precipitation Wind Pressure Humidity
    00:00 +18°C° 0.6 mm 0 mps 611 mmHg 83%
    01:00 +19°C° 0.1 mm 1 mps 611 mmHg 83%
    02:00 +19°C° 0.1 mm 1 mps 610 mmHg 84%
    03:00 +19°C° 0.1 mm 1 mps 610 mmHg 85%
    04:00 +19°C° 0 mm 1 mps 610 mmHg 84%
    05:00 +18°C° 0 mm 1 mps 610 mmHg 84%
    06:00 +18°C° 0 mm 1 mps 610 mmHg 84%
    07:00 +19°C° 0 mm 1 mps 611 mmHg 77%
    08:00 +21°C° 0 mm 1 mps 612 mmHg 70%
    09:00 +22°C° 0 mm 1 mps 613 mmHg 64%
    10:00 +23°C° 0 mm 1 mps 613 mmHg 59%
    11:00 +25°C° 0 mm 1 mps 614 mmHg 54%
    12:00 +26°C° 0 mm 1 mps 614 mmHg 50%
    13:00 +26°C° 0.1 mm 1 mps 613 mmHg 50%
    14:00 +26°C° 0.1 mm 2 mps 613 mmHg 50%
    15:00 +26°C° 0.1 mm 2 mps 612 mmHg 50%
    16:00 +25°C° 0.4 mm 2 mps 612 mmHg 56%
    17:00 +24°C° 0.4 mm 2 mps 612 mmHg 62%
    18:00 +21°C° 0.4 mm 2 mps 612 mmHg 68%
    19:00 +22°C° 0.9 mm 1 mps 612 mmHg 71%
    20:00 +21°C° 0.9 mm 1 mps 612 mmHg 74%
    21:00 +20°C° 0.9 mm 1 mps 612 mmHg 78%
    22:00 +20°C° 0.2 mm 1 mps 612 mmHg 79%
    23:00 +20°C° 0.2 mm 1 mps 612 mmHg 80%
    Show more